Regional Weather Roundup
Issued by NWS

Home | Current Version | Previous Version | Text Only | Print | Product List | Glossary On
Versions: 1 2 3 4 5 6 7 8 9 10 11 12 13 14 15 16 17 18 19 20 21 22 23 24 25 26 27 28 29 30 31 32 33 34 35 36 37 38 39 40 41 42 43 44 45 46 47 48 49 50
000
ASUS45 KCYS 211410
RWRWY

WYOMING REGIONAL WEATHER ROUNDUP
NATIONAL WEATHER SERVICE CHEYENNE WY
800 AM MDT SAT APR 21 2018

NOTE:  "FAIR" INDICATES FEW OR NO CLOUDS BELOW 12,000 FEET
WITH NO SIGNIFICANT WEATHER AND/OR OBSTRUCTIONS TO VISIBILITY.

WYZ001-211500-
YELLOWSTONE NATIONAL PARK

CITY           SKY/WX    TMP DP  RH WIND       PRES   REMARKS
LK YELLOWSTONE   N/A     25  21  85 CALM      30.24S
W YELLOWSTONE  NOT AVBL

$$
WYZ002>013-054>058-071-098>099-211500-
NORTHERN WYOMING

CITY           SKY/WX    TMP DP  RH WIND       PRES   REMARKS
JACKSON        FAIR      32  25  75 NE5       30.22S WCI  27
CODY           FAIR      41  30  65 CALM      30.12S
GREYBULL       FAIR      40  35  83 SE3       30.12R
WORLAND        FAIR      43  35  73 S3        30.12R
SHERIDAN       FAIR      39  34  82 CALM      30.11S
BUFFALO        FAIR      42  36  79 CALM      30.11F
GILLETTE       PTSUNNY   41  35  79 S13       30.14S
HULETT         PTSUNNY   41  34  75 S15       30.16F
NEWCASTLE      CLOUDY    36  36 100 SE8       30.21S WCI  29

$$
WYZ014>020-022>026-101>103-211500-
CENTRAL WYOMING

CITY           SKY/WX    TMP DP  RH WIND       PRES   REMARKS
BIG PINEY      CLOUDY    29  27  92 CALM      30.22R
PINEDALE       FOG       30  28  93 W6        30.22R VSB 1/2 WCI  24
DUBOIS         FAIR      34  23  64 W10       30.16F WCI  26
LANDER         FAIR      33  30  88 SE3       30.14F
RIVERTON       FAIR      37  34  89 CALM      30.16S
CASPER         PTSUNNY   37  36  96 CALM      30.15R
DOUGLAS        CLOUDY    35  35 100 SE10      30.18R WCI  27

$$
WYZ021-027>030-104>119-211500-
SOUTHERN WYOMING

CITY           SKY/WX    TMP DP  RH WIND       PRES   REMARKS
EVANSTON       FAIR      38  27  64 SW5       30.22R WCI  34
KEMMERER       FAIR      36  28  75 N3        30.21R
FORT BRIDGER   FAIR      41  30  66 W9        30.22S
ROCK SPRINGS   FAIR      36  31  82 CALM      30.19S
DIXON          CLOUDY    38  31  75 N8        30.19S WCI  32
RAWLINS          N/A    N/A N/A N/A MISG      30.16S
SARATOGA       CLOUDY    32  32 100 NW5       30.17R FOG     WCI  27
LARAMIE        CLOUDY    28  28 100 W5        30.14R WCI  23
CHEYENNE       LGT SNOW  30  30 100 CALM      30.16R VSB 3/4
TORRINGTON     LGT SNOW  34  34 100 SE5       30.20S FOG     WCI  30
PINE BLUFFS    CLOUDY    32  32 100 MISG      30.18S

$$



USA.gov is the U.S. government's official web portal to all federal, state and local government web resources and services.